World > North America > United States > Virginia

Hourly Saunders, VA Regional Weather

Feedback E-mail the Weather

Quick WX

Saunders, VA Weather Maps

°F °C°F °C
Saunders Weather Map
UTC Time: 7/1/2022, 23:45
Your Time:

Saunders, VA Regional Weather

Expires:202207020000;;519543
ASUS41 KAKQ 012316
RWRAKQ

REGIONAL WEATHER ROUNDUP
NATIONAL WEATHER SERVICE WAKEFIELD VA
700 PM EDT FRI JUL 01 2022

Note: "fair" indicates few or no clouds below 12,000 feet with no
significant weather and/or obstructions to visibility. * = Denotes
station may not report precipitation (e.g., rain,snow,etc.),
thunder or fog.


VAZ088>098-020000-
SOUTHEAST VIRGINIA
  
CITY           SKY/WX    TMP DP  RH WIND       PRES   REMARKS
NORFOLK        MOSUNNY   87  71  58 S12       30.04S                  
VIRGINIA BEACH MOSUNNY   86  72  62 S12       30.05S                  
NORFOLK NAVAL  MOSUNNY   87  71  58 S9        30.05F                  
WEST POINT*    MOSUNNY   86  67  52 S3        30.04S                  
SALUDA*        FAIR      83  73  72 S8        30.03S                  
NEWPORT NEWS   MOSUNNY   87  72  60 S14       30.03F                  
LANGLEY AFB    MOSUNNY   88  74  63 S18       30.02F HX  96           
FORT EUSTIS    MOSUNNY   88  70  54 S10       30.01F                  
WILLIAMSBURG*  MOSUNNY   91  66  43 SW3       30.04S                  
HR EXEC AP*    FAIR      86  72  62 VRB7      30.06S                  
FRANKLIN*      MOSUNNY   87  69  54 S12G17    30.05S                  
US460-WAKEFLD  MOSUNNY   88  70  55 VRB5      30.03F                  
$$


SKY/WX - Weather  TMP - Temperature  DP - Dew Point  RH - Humidity
WIND - Wind Direction/Speed PRES - Barometric Pressure VSB - Visibility
WCI - Wind Chill Index E13G22 Wind - East Wind 13 mph/Gusts of 22 mph

Trending Headlines

Saunders Radar Loop



Saunders Quick Facts


National Two Day Weather Forecast


E-mail the Saunders Weather Forecast

Voice your opinion or tell us about page issues...